Location: Brunembert
(50.7122°N, 1.8935°E)
Time: 04:21:48
(UTC+00:00)

Cosmos 2074 Rocket - Pass Details

Date: 22 April 2021
Orbit: 968 x 986 km, 82.9° (Epoch: 06 May)

Event Time Altitude Azimuth Distance (km) Brightness Sun altitude
Rises 23:31:31 0° 349° (N) 3,690 8.3 -26.6°
Reaches altitude 10° 23:34:02 10° 350° (N) 2,740 7.4 -26.6°
Maximum altitude 23:40:20 87° 264° (W) 990 3.9 -26.7°
Enters shadow 23:41:12 69° 180° (S) 1,051 3.8 -26.7°
